"Pseudo-MPEC" for A11aGFe

Created 2024 Sep 6 6:22:02 UT using Find_Orb

Click here for an explanation of pseudo-MPECs

 
 Astrometry: 
     A11aGFe* C2024 09 05.19244100 04 32.969-21 48 07.74   ~958b 19.17oVNEOCPW68
     A11aGFe  C2024 09 05.19575900 04 32.986-21 47 43.33   ~958b 19.19oVNEOCPW68
     A11aGFe  C2024 09 05.20181700 04 32.918-21 46 56.93   ~958b 19.33oVNEOCPW68
     A11aGFe  C2024 09 05.23703800 04 32.705-21 42 22.75   ~958b 19.34oVNEOCPW68
     A11aGFe KB2024 09 05.37124 00 04 42.082-21 30 11.20   ~959M 19.1 RZNEOCPH36
     A11aGFe KB2024 09 05.37617 00 04 42.178-21 29 29.83   ~959M 19.5 RZNEOCPH36
     A11aGFe KB2024 09 05.38109 00 04 42.259-21 28 46.60   ~959M 19.0 RZNEOCPH36
     A11aGFe  C2024 09 05.38214800 04 33.71 -21 21 53.3    ~959b       WNEOCPX09
     A11aGFe  C2024 09 05.38567300 04 33.82 -21 21 21.3    ~959b       WNEOCPX09
     A11aGFe KC2024 09 05.55770 00 05 25.04 -20 56 21.2    ~95FM 19.1 VqNEOCPE23
     A11aGFe KC2024 09 05.58547 00 05 25.38 -20 52 12.4    ~95FM 19.1 VqNEOCPE23
     A11aGFe  C2024 09 05.83717 00 06 18.20 -20 10 22.1    ~95NM 18.5 GVNEOCPM28
     A11aGFe  C2024 09 05.83921 00 06 18.34 -20 10 02.2    ~95NM 18.8 GVNEOCPM28
     A11aGFe  C2024 09 05.84125 00 06 18.49 -20 09 41.6    ~95NM 18.7 GVNEOCPM28
     A11aGFe  C2024 09 05.84667 00 06 18.88 -20 08 48.6    ~95NM 18.8 GVNEOCPM28
     A11aGFe  C2024 09 05.84887 00 06 19.01 -20 08 26.7    ~95NM 18.9 GVNEOCPM28
     A11aGFe  C2024 09 05.85108 00 06 19.15 -20 08 04.5    ~95NM 18.9 GVNEOCPM28
     A11aGFe KB2024 09 05.92662 00 06 19.29 -20 02 57.7    ~95Mq 19.0 GXNEOCPM45
     A11aGFe KB2024 09 05.92965 00 06 19.42 -20 02 25.5    ~95Mq 18.6 GXNEOCPM45
     A11aGFe KB2024 09 05.93256 00 06 19.57 -20 01 54.8    ~95Mq 18.7 GXNEOCPM45
     A11aGFe  C2024 09 05.94179200 06 22.903-19 52 26.15   ~960b 19.25cVNEOCPM22
     A11aGFe  C2024 09 05.94360600 06 22.961-19 52 07.03   ~960b 19.00cVNEOCPM22
     A11aGFe  C2024 09 05.94772200 06 23.074-19 51 21.64   ~960b 18.93cVNEOCPM22
     A11aGFe  C2024 09 05.95317400 06 23.196-19 50 22.81   ~960b 18.99cVNEOCPM22
     A11aGFe |C2024 09 06.22997000 07 10.150-18 55 59.90   ~9667 18.7 GVNEOCP807
     A11aGFe |C2024 09 06.23126000 07 10.190-18 55 43.40   ~9667 18.7 GVNEOCP807
     A11aGFe |C2024 09 06.23259000 07 10.220-18 55 26.60   ~9667 18.8 GVNEOCP807
     A11aGFe |C2024 09 06.23393000 07 10.260-18 55 09.60   ~9667 18.7 GVNEOCP807

Station data:
(807) Cerro Tololo Observatory, La Serena  (S30.169133 W70.805900)  Chile.
   Observer R. Holmes. 0.61-m f/6.5 astrograph + CCD.
(E23) Arcadia  (S33.621197 E151.071190)  Australia/NSW.  Observer A. Hidas.
   0.35-m f/1.9 reflector + CCD.
(H36) Sandlot Observatory, Scranton  (N38.797718 W95.706550)  US/Kansas.
   Observer G. Hug. 0.56-m reflector + CCD.
(M22) ATLAS South Africa, Sutherland  (S32.380156 E20.810590)  South Africa.
   Observers L. Denneau, R. Siverd, J. Tonry, H. Weiland. Measurers L.
   Denneau, N. Erasmus, A. Fitzsimmons, A. Lawrence, J. Robinson, R. Siverd,
   J. Tonry, H. Weiland. 0.5-m reflector + CCD.
(M28) Lesedi Telescope-SAAO Observatory, Sutherland  (S32.379790 E20.810640)
   South Africa.  Observer N. Erasmus. 1.0-m f/8 Reflector + CCD.
(M45) Starhopper Observatory, Sfantu Gheorghe  (N45.865582 E25.768900)
   Romania.  Observer F. Ursache. 0.41-m f/7.5 reflector + CMO.
(W68) ATLAS Chile, Rio Hurtado  (S30.471010 W70.764980)  Chile.  Observers L.
   Denneau, R. Siverd, J. Tonry, H. Weiland. Measurers L. Denneau, N.
   Erasmus, A. Fitzsimmons, A. Lawrence, J. Robinson, R. Siverd, J. Tonry, H.
   Weiland. 0.5-m reflector + CCD.
(X09) Deep Random Survey, Rio Hurtado  (S30.526310 W70.853300)  Chile.

Orbital elements:  A11aGFe
   Perihelion 2024 Nov 11.20247 +/- 0.00914 TT =  4:51:33 (JD 2460625.70247)
Epoch 2024 Sep  6.0 TT = JDT 2460559.5   Earth MOID: 0.0036      AutoNEOCP
M 307.22199301 +/- 0.017            (J2000 ecliptic)
n   0.79722110 +/- 0.000152         Peri.   82.62711 +/- 0.008
a   1.15190551 +/- 0.000146         Node   346.26336 +/- 0.0008
e   0.2931231 +/- 0.000175          Incl.    8.42368 +/- 0.0044
P   1.236/451.560d         H 26.37  G  0.15   U  6.8
q 0.81425539 +/- 0.000109    Q 1.48955563 +/- 0.000385
From 28 observations 2024 Sept. 5-6 (25.0 hr); mean residual 0".35
Residuals in arcseconds: 
240905 W68  .03-  .12-    240905 E23  .02-  .37+    240905 M22  .38-  .03+    
240905 W68  .34+  .84-    240905 M28  .02+  .23-    240905 M22  .10-  .40-    
240905 W68  .26-  .55-    240905 M28  .21-  .41-    240905 M22  .31+  .51+    
240905 W68  .52+  .01+    240905 M28  .26-  .08+    240905 M22  .56+  .16+    
240905 H36  .35-  .42+    240905 M28  .30-  .51-    240906 807  .09-  .05+    
240905 H36  .03-  .49-    240905 M28  .63-  .43-    240906 807  .06+  .20+    
240905 H36  .02-  .36+    240905 M28  .78-  .19-    240906 807  .05+  .12+    
240905 X09  .23+  .38+    240905 M45  .24+  .19-    240906 807  .19+  .09+    
240905 X09  .32-  .60+    240905 M45  .08+  .12-    
240905 E23  .36+  .56+    240905 M45  .30+  .36-    

Ephemerides (geocentric):
Date (UTC) HH   RA             Dec           delta  r     elong  mag " sig PA
---- --------  ------------   ------------  ------ ------ -----  --- --------
2024 09 06 06  00 07 11.997   -18 53 11.77  .01959 1.0263 159.5 18.9 .084  55
2024 09 06 07  00 07 20.218   -18 44 11.87  .01937 1.0261 159.5 18.9 .096  51
2024 09 06 08  00 07 28.604   -18 34 59.71  .01916 1.0259 159.6 18.8 .110  47
2024 09 06 09  00 07 37.160   -18 25 34.89  .01894 1.0257 159.7 18.8 .126  44
2024 09 06 10  00 07 45.891   -18 15 56.99  .01873 1.0255 159.8 18.8 .143  42
2024 09 06 11  00 07 54.804   -18 06 05.55  .01851 1.0253 159.9 18.8 .162  39
2024 09 06 12  00 08 03.903   -17 56 00.12  .01830 1.0251 160.0 18.7 .183  37
2024 09 06 13  00 08 13.196   -17 45 40.20  .01808 1.0249 160.0 18.7 .206  35
2024 09 06 14  00 08 22.689   -17 35 05.29  .01787 1.0247 160.1 18.7 .231  34
2024 09 06 15  00 08 32.388   -17 24 14.85  .01765 1.0245 160.2 18.6 .258  32
2024 09 06 16  00 08 42.300   -17 13 08.33  .01744 1.0243 160.3 18.6 .287  31
2024 09 06 17  00 08 52.434   -17 01 45.14  .01722 1.0241 160.4 18.6 .319  30
2024 09 06 18  00 09 02.796   -16 50 04.68  .01701 1.0239 160.5 18.6 .353  29
2024 09 06 19  00 09 13.394   -16 38 06.29  .01680 1.0237 160.6 18.5 .390  28
2024 09 06 20  00 09 24.237   -16 25 49.31  .01658 1.0235 160.6 18.5 .430  27
2024 09 06 21  00 09 35.334   -16 13 13.04  .01637 1.0233 160.7 18.5 .473  26
2024 09 06 22  00 09 46.694   -16 00 16.73  .01616 1.0231 160.8 18.4 .519  25
2024 09 06 23  00 09 58.327   -15 46 59.61  .01595 1.0229 160.9 18.4 .569  24
2024 09 07 00  00 10 10.243   -15 33 20.85  .01573 1.0227 161.0 18.4 .622  24
2024 09 07 01  00 10 22.452   -15 19 19.61  .01552 1.0225 161.1 18.3 .680  23
2024 09 07 02  00 10 34.966   -15 04 54.97  .01531 1.0223 161.2 18.3 .741  23
2024 09 07 03  00 10 47.796   -14 50 05.99  .01510 1.0221 161.3 18.3 .807  22
2024 09 07 04  00 11 00.956   -14 34 51.67  .01489 1.0219 161.4 18.2 .878  22
2024 09 07 05  00 11 14.457   -14 19 10.94  .01468 1.0217 161.4 18.2 .954  21
2024 09 07 06  00 11 28.314   -14 03 02.71  .01447 1.0214 161.5 18.2 1.04  21
2024 09 07 07  00 11 42.541   -13 46 25.80  .01426 1.0212 161.6 18.1 1.12  20
2024 09 07 08  00 11 57.154   -13 29 18.97  .01405 1.0210 161.7 18.1 1.22  20
2024 09 07 09  00 12 12.169   -13 11 40.93  .01384 1.0208 161.8 18.1 1.32  20
2024 09 07 10  00 12 27.602   -12 53 30.28  .01363 1.0206 161.9 18.0 1.42  19
2024 09 07 11  00 12 43.471   -12 34 45.57  .01342 1.0204 161.9 18.0 1.54  19
2024 09 07 12  00 12 59.797   -12 15 25.27  .01321 1.0202 162.0 17.9 1.66  19
2024 09 07 13  00 13 16.598   -11 55 27.74  .01300 1.0200 162.1 17.9 1.79  18
2024 09 07 14  00 13 33.896   -11 34 51.26  .01280 1.0198 162.2 17.9 1.93  18
2024 09 07 15  00 13 51.714   -11 13 34.01  .01259 1.0196 162.2 17.8 2.08  18
2024 09 07 16  00 14 10.076   -10 51 34.04  .01238 1.0194 162.3 17.8 2.25  17
2024 09 07 17  00 14 29.007   -10 28 49.30  .01218 1.0192 162.3 17.8 2.42  17
2024 09 07 18  00 14 48.534   -10 05 17.61  .01197 1.0190 162.4 17.7 2.61  17
2024 09 07 19  00 15 08.687   -09 40 56.67  .01177 1.0188 162.4 17.7 2.81  17
2024 09 07 20  00 15 29.496   -09 15 44.02  .01156 1.0186 162.4 17.6 3.02  17
2024 09 07 21  00 15 50.994   -08 49 37.04  .01136 1.0184 162.5 17.6 3.25  16
2024 09 07 22  00 16 13.215   -08 22 32.98  .01116 1.0182 162.5 17.6 3.49  16
2024 09 07 23  00 16 36.198   -07 54 28.88  .01096 1.0180 162.5 17.5 3.76  16
2024 09 08 00  00 16 59.982   -07 25 21.61  .01075 1.0178 162.4 17.5 4.04  16
2024 09 08 01  00 17 24.610   -06 55 07.82  .01055 1.0176 162.4 17.4 4.35  16
2024 09 08 02  00 17 50.128   -06 23 43.97  .01036 1.0174 162.4 17.4 4.67  15
2024 09 08 03  00 18 16.585   -05 51 06.28  .01016 1.0172 162.3 17.4 5.03  15
2024 09 08 04  00 18 44.034   -05 17 10.72  .00996 1.0170 162.2 17.3 5.40  15
2024 09 08 05  00 19 12.533   -04 41 52.98  .00976 1.0168 162.1 17.3 5.81  15